Погода в Баклановской

Россия / Ставропольский край     45°27′15″N   41°36′36″E
темп.,
°C
ветер,
м/с
пор.,
м/с
влажн.,
%
обл.,
%
осадки,
мм/ч
давл.,
гПа
погр.,
м
18 октября, пн
пн1800:00+15зюз368762 0.0 1014130
03:00+13зюз37955 0.0 1014164
06:00+12зюз36785 0.0 1015140
09:00+14з455739 0.0 1016361
12:00+18зсз454377 0.0 1015977
15:00+19зсз56385 0.0 10151422
18:00+16зсз354778 0.0 101677
21:00+14зсз335344 0.0 101742
19 октября, вт
вт1900:00+13зсз3659100 0.0 1018283
03:00+12з4762100 0.0 1018516
06:00+10зюз510745 0.0 1018434
09:00+12з7105824 0.0 1019966
12:00+14з911466 0.0 10181582
15:00+10зсз81266100 0.0 10191193
18:00+9з7127743 1.4 10201128
21:00+8з7126815 1.5 10221018
20 октября, ср
ср2000:00+6зсз612715 0.0 1024546
03:00+5зюз512735 0.0 1025389
06:00+5з512730 0.0 1026345
09:00+7зсз711535 0.0 10271092
12:00+10зсз8114072 0.0 10271685
15:00+11зсз8103322 0.0 10271825
18:00+8сз36375 0.0 1029131
21:00+6ссз12441 0.0 102910
21 октября, чт
чт2100:00+5юз11475 0.0 102910
03:00+4юз2250100 0.0 102917
06:00+4ююз22515 0.0 102930
09:00+7ююз335199 0.0 1029249
12:00+12юз333649 0.0 1027754
15:00+14зюз232811 0.0 1025940
18:00+11юз12365 0.0 102510
21:00+9ю33415 0.0 102426
22 октября, пт
пт2200:00+9ююз34465 0.0 102341
03:00+8ююз23460 0.0 102223
06:00+8ю33470 0.0 102222
09:00+12ю23385 0.0 1022146
12:00+18ююз22281 0.0 1020558
15:00+21зюз23255 0.0 1019891
18:00+16зсз22370 0.0 102011
21:00+14юв22410 0.0 102010